Location: Bishop�s Knoyle
(51.0728°N, 2.1714°W)
Time: 03:59:20
(UTC+00:00)

Envisat - Pass Details

Date: 20 September 2021
Orbit: 764 x 766 km, 98.2° (Epoch: 15 October)

Event Time Altitude Azimuth Distance (km) Brightness Sun altitude
Rises 03:42:38 0° 31° (NNE) 3,244 7.3 -20.2°
Reaches altitude 10° 03:46:54 10° 66° (ENE) 2,309 6.7 -19.6°
Maximum altitude 03:48:24 11° 83° (E) 2,224 6.4 -19.4°
Drops below altitude 10° 03:49:53 10° 101° (E) 2,304 6.2 -19.2°
Sets 03:54:07 0° 135° (SE) 3,222 6.5 -18.6°
